DW5256 Weather Reports


Display with metric or nautical units.
time (UTC)temp
F
wind
direction
speed
MPH
gust
MPH
rain 1hr
in
rain 24hr
in
rain mn
in
humidity
%
barometer
mb
20260507182019 70 331 0.0 7.0 0.00 0.00 0.00 67 1014.3
20260507180531 69 274 1.0 8.0 0.00 0.00 0.00 69 1014.4
20260507175032 68 279 0.0 4.0 0.00 0.00 0.00 69 1014.5
20260507173523 67 288 2.0 7.0 0.00 0.00 0.00 70 1014.6
20260507172031 66 281 0.0 4.0 0.00 0.00 0.00 72 1014.7
20260507170516 64 283 0.0 7.0 0.00 0.00 0.00 75 1014.9
20260507165025 64 289 0.0 5.0 0.00 0.00 0.00 75 1014.9
20260507163534 63 299 1.0 6.0 0.00 0.00 0.00 77 1015.0
20260507162026 62 295 2.0 5.0 0.00 0.00 0.00 78 1015.2
20260507160518 62 269 0.0 0.0 0.00 0.00 0.00 79 1015.0
20260507155028 61 265 0.0 0.0 0.00 0.00 0.00 81 1015.2
20260507153541 60 294 0.0 0.0 0.00 0.00 0.00 82 1015.0
20260507152025 60 275 0.0 0.0 0.00 0.00 0.00 83 1015.0
20260507150516 59 336 0.0 0.0 0.00 0.00 0.00 84 1015.0
20260507145028 58 337 0.0 0.0 0.00 0.00 0.00 85 1015.0
20260507143522 57 337 0.0 0.0 0.00 0.00 0.00 85 1015.0
20260507142037 57 336 0.0 0.0 0.00 0.00 0.00 85 1014.8
20260507140535 57 315 0.0 0.0 0.00 0.00 0.00 86 1014.7
20260507135024 57 310 0.0 0.0 0.00 0.00 0.00 87 1014.5
20260507133532 56 310 0.0 0.0 0.00 0.00 0.00 87 1014.5
20260507132028 56 310 0.0 0.0 0.00 0.00 0.00 87 1014.5
20260507130523 55 310 0.0 0.0 0.00 0.00 0.00 87 1014.5
20260507125020 55 310 0.0 0.0 0.00 0.00 0.00 87 1014.3
20260507123519 55 309 0.0 0.0 0.00 0.00 0.00 86 1014.2
20260507122016 55 309 0.0 0.0 0.00 0.00 0.00 86 1014.2
20260507120515 55 309 0.0 0.0 0.00 0.00 0.00 86 1014.2
20260507115032 55 309 0.0 0.0 0.00 0.00 0.00 86 1014.2
20260507113553 55 309 0.0 0.0 0.00 0.00 0.00 86 1014.2
20260507112027 55 309 0.0 0.0 0.00 0.00 0.00 86 1014.3
20260507110540 55 309 0.0 0.0 0.00 0.00 0.00 86 1014.4
20260507105016 56 309 0.0 0.0 0.00 0.00 0.00 86 1014.4
20260507103514 56 309 0.0 0.0 0.00 0.00 0.00 86 1014.5
20260507102032 56 309 0.0 0.0 0.00 0.00 0.00 86 1014.6
20260507100533 56 309 0.0 0.0 0.00 0.00 0.00 86 1014.6
20260507095045 56 309 0.0 0.0 0.00 0.00 0.00 86 1014.7
20260507093524 57 309 0.0 0.0 0.00 0.00 0.00 85 1014.8
20260507092040 57 309 0.0 0.0 0.00 0.00 0.00 85 1014.9
20260507090543 57 309 0.0 0.0 0.00 0.00 0.00 85 1015.1
20260507085015 57 309 0.0 0.0 0.00 0.00 0.00 85 1015.2
20260507083533 57 309 0.0 0.0 0.00 0.00 0.00 85 1015.3
20260507082033 57 309 0.0 0.0 0.00 0.00 0.00 85 1015.4
20260507080534 57 309 0.0 0.0 0.00 0.00 0.00 85 1015.5
20260507075013 57 309 0.0 0.0 0.00 0.00 0.00 84 1015.6
20260507073531 58 309 0.0 0.0 0.00 0.00 0.00 85 1015.5
20260507072026 58 309 0.0 0.0 0.00 0.00 0.00 84 1015.5
20260507070524 59 309 0.0 0.0 0.00 0.00 0.00 84 1015.6
20260507065031 59 309 0.0 0.0 0.00 0.00 0.00 84 1015.8
20260507063530 59 309 0.0 0.0 0.00 0.00 0.00 83 1015.9
20260507062046 59 309 0.0 0.0 0.00 0.00 0.00 83 1015.9
20260507060527 59 309 0.0 0.0 0.00 0.00 0.00 82 1015.9
20260507055022 59 309 0.0 0.0 0.00 0.00 0.00 81 1015.9
20260507053524 59 309 0.0 0.0 0.00 0.00 0.00 80 1015.9
20260507052022 60 309 0.0 0.0 0.00 0.00 0.00 80 1015.9
20260507050554 60 309 0.0 0.0 0.00 0.00 0.00 80 1015.9
20260507045028 60 309 0.0 0.0 0.00 0.00 0.00 80 1015.9
20260507043528 60 309 0.0 0.0 0.00 0.00 0.00 80 1015.7
20260507042027 60 309 0.0 0.0 0.00 0.00 0.00 80 1015.8
20260507040525 60 309 0.0 4.0 0.00 0.00 0.00 80 1015.7
20260507035028 61 296 0.0 6.0 0.00 0.00 0.00 79 1015.4
20260507033546 61 288 0.0 4.0 0.00 0.00 0.00 77 1015.3
20260507032024 62 319 0.0 6.0 0.00 0.00 0.00 76 1015.1
20260507030524 62 321 1.0 5.0 0.00 0.00 0.00 74 1015.1
20260507025015 63 315 1.0 9.0 0.00 0.00 0.00 72 1014.9
20260507023517 63 314 0.0 4.0 0.00 0.00 0.00 72 1014.7
20260507022014 64 306 2.0 9.0 0.00 0.00 0.00 69 1014.6
20260507020534 65 290 1.0 10.0 0.00 0.00 0.00 67 1014.6
20260507015014 66 311 4.0 10.0 0.00 0.00 0.00 66 1014.5
20260507013534 66 306 2.0 10.0 0.00 0.00 0.00 65 1014.4
20260507012034 67 296 2.0 8.0 0.00 0.00 0.00 63 1014.4
20260507010555 67 286 2.0 11.0 0.00 0.00 0.00 63 1014.5
20260507005013 68 325 4.0 13.0 0.00 0.00 0.00 63 1014.4
20260507003534 68 255 3.0 10.0 0.00 0.00 0.00 64 1014.3
20260507002013 68 315 1.0 8.0 0.00 0.00 0.00 63 1014.3
20260507000532 68 302 4.0 10.0 0.00 0.00 0.00 63 1014.1
20260506235030 68 346 4.0 15.0 0.00 0.00 0.00 64 1014.2
20260506233532 68 292 2.0 14.0 0.00 0.00 0.00 65 1014.0
20260506232030 68 261 3.0 15.0 0.00 0.00 0.00 63 1014.1
20260506230532 70 294 5.0 13.0 0.00 0.00 0.00 62 1014.1
20260506225028 69 311 6.0 14.0 0.00 0.00 0.00 63 1014.1
20260506223544 69 279 6.0 15.0 0.00 0.00 0.00 62 1014.2
20260506222037 70 265 6.0 13.0 0.00 0.00 0.00 60 1014.3
20260506220532 69 282 9.0 17.0 0.00 0.00 0.00 61 1014.4
20260506215029 70 307 4.0 14.0 0.00 0.00 0.00 60 1014.6
20260506213529 71 250 4.0 14.0 0.00 0.00 0.00 61 1014.8
20260506212027 70 253 3.0 16.0 0.00 0.00 0.00 63 1014.8
20260506210546 70 224 5.0 16.0 0.00 0.00 0.00 63 1014.8
20260506205021 70 287 5.0 14.0 0.00 0.00 0.00 62 1015.0
20260506203521 71 246 2.0 15.0 0.00 0.00 0.00 62 1015.0
20260506202018 71 261 8.0 15.0 0.00 0.00 0.00 60 1015.1
20260506200516 72 268 1.0 13.0 0.00 0.00 0.00 60 1015.1
20260506195028 71 273 2.0 14.0 0.00 0.00 0.00 59 1015.2
20260506193523 71 273 0.0 11.0 0.00 0.00 0.00 59 1015.3
20260506192022 70 299 6.0 12.0 0.00 0.00 0.00 59 1015.5
20260506190541 70 259 1.0 13.0 0.00 0.00 0.00 58 1015.5
20260506185030 69 331 0.0 10.0 0.00 0.00 0.00 57 1015.6
20260506183545 69 306 3.0 9.0 0.00 0.00 0.00 57 1015.8